Ketchikan, AK

5:15 PM AKST on December 12, 2018 (GMT -0900)
Ketchikan International

Weather History for PAKT - October, 2018

Change the Weather History Date:

Wednesday, October 31, 2018

  Actual Average Record
Temperature  
Mean Temperature 44 °F -  
Max Temperature 48 °F 48 °F 58 °F (1954)
Min Temperature 39 °F 36 °F 17 °F (1984)
Degree Days  
Heating Degree Days 22    
Moisture  
Dew Point 40 °F    
Average Humidity 84    
Maximum Humidity 97    
Minimum Humidity 66    
Precipitation  
Precipitation 0.00 in - - ()
Sea Level Pressure  
Sea Level Pressure 29.91 in    
Wind  
Wind Speed 5 mph (NW)    
Max Wind Speed 13 mph    
Max Gust Speed -    
Visibility 10 miles    
Events      
Averages and records for this station are not official NWS values.
T = Trace of Precipitation, MM = Missing Value Source: NWS Daily Summary

Daily Weather History Graph

Daily Weather History Graph

Search for Another Location

Airport or City:

Astronomy

Oct. 31, 2018 Rise Set
Actual Time 7:50 AM AKDT 5:09 PM AKDT
Civil Twilight 7:11 AM AKDT 5:48 PM AKDT
Nautical Twilight 6:27 AM AKDT 6:31 PM AKDT
Astronomical Twilight 5:45 AM AKDT 7:14 PM AKDT
Moon 11:38 PM AKDT (10/31) 2:56 PM AKDT (10/31)
Length of Visible Light 10h 37m
Length of Day
9h 19m
Waning Gibbous, 48% of the Moon is Illuminated
Oct 31
Waning Gibbous
Nov 7
New
Nov 15
First Quarter
Nov 22
Full
Nov 29
Last Quarter

Hourly Weather History & Observations

Time (AKDT) Temp. Windchill Dew Point Humidity Pressure Visibility Wind Dir Wind Speed Gust Speed Precip Events Conditions
12:13 AM 45.0 °F - 43.0 °F 93% 29.81 in 10.0 mi Calm Calm - N/A   Overcast
12:53 AM 45.0 °F 43.5 °F 43.0 °F 93% 29.82 in 10.0 mi WNW 3.5 mph - N/A   Overcast
1:53 AM 45.0 °F 41.8 °F 43.0 °F 93% 29.82 in 10.0 mi NW 5.8 mph - N/A   Overcast
2:06 AM 45.0 °F 42.6 °F 43.0 °F 93% 29.82 in 10.0 mi WNW 4.6 mph - N/A   Overcast
2:13 AM 45.0 °F 42.6 °F 43.0 °F 93% 29.82 in 10.0 mi WNW 4.6 mph - N/A   Overcast
2:33 AM 45.0 °F 42.6 °F 43.0 °F 93% 29.82 in 10.0 mi NW 4.6 mph - N/A   Overcast
2:53 AM 45.0 °F 41.8 °F 43.0 °F 93% 29.83 in 10.0 mi NW 5.8 mph - N/A   Overcast
3:53 AM 45.0 °F 41.8 °F 43.0 °F 93% 29.84 in 10.0 mi NNW 5.8 mph - 0.00 in   Overcast
4:08 AM 45.0 °F 41.8 °F 43.0 °F 93% 29.84 in 8.0 mi NW 5.8 mph - N/A   Overcast
4:34 AM 46.0 °F 43.1 °F 43.0 °F 89% 29.84 in 10.0 mi NNW 5.8 mph - N/A   Overcast
4:53 AM 45.0 °F 41.8 °F 44.1 °F 97% 29.85 in 10.0 mi NW 5.8 mph - 0.00 in   Overcast
5:45 AM 46.0 °F 41.9 °F 43.0 °F 89% 29.86 in 10.0 mi NW 8.1 mph - 0.00 in   Overcast
5:53 AM 46.0 °F 42.5 °F 43.0 °F 89% 29.87 in 10.0 mi NW 6.9 mph - 0.00 in   Overcast
6:07 AM 46.4 °F 41.9 °F 42.8 °F 87% 29.86 in 10.0 mi NW 9.2 mph - N/A   Overcast
6:53 AM 44.6 °F 41.4 °F 39.2 °F 81% 29.88 in 10.0 mi NNW 5.8 mph - N/A   Scattered Clouds
7:53 AM 44.6 °F 41.4 °F 39.2 °F 81% 29.91 in 10.0 mi NW 5.8 mph - N/A   Mostly Cloudy
8:53 AM 46.0 °F 43.1 °F 39.9 °F 79% 29.92 in 10.0 mi NNW 5.8 mph - N/A   Scattered Clouds
9:53 AM 46.4 °F 42.4 °F 41.0 °F 81% 29.95 in 10.0 mi NNW 8.1 mph - N/A   Scattered Clouds
10:53 AM 48.0 °F - 39.0 °F 71% 29.95 in 10.0 mi NNW 12.7 mph - N/A   Scattered Clouds
11:53 AM 48.0 °F - 39.0 °F 71% 29.98 in 10.0 mi NW 9.2 mph - N/A   Partly Cloudy
12:53 PM 48.2 °F - 37.4 °F 66% 30.00 in 10.0 mi NW 9.2 mph - N/A   Partly Cloudy
1:53 PM 48.2 °F - 37.4 °F 66% 30.00 in 10.0 mi NW 5.8 mph - N/A   Partly Cloudy
2:53 PM 46.4 °F 45.2 °F 37.4 °F 71% 30.01 in 10.0 mi WNW 3.5 mph - N/A   Partly Cloudy
3:53 PM 46.0 °F 44.8 °F 37.0 °F 71% 30.01 in 10.0 mi WNW 3.5 mph - N/A   Partly Cloudy
4:53 PM 44.6 °F 42.2 °F 37.4 °F 76% 30.01 in 10.0 mi WNW 4.6 mph - N/A   Clear
5:53 PM 42.1 °F - 36.0 °F 79% 30.00 in 10.0 mi Calm Calm - N/A   Clear
6:53 PM 39.9 °F - 36.0 °F 86% 29.99 in 10.0 mi Calm Calm - N/A   Clear
7:53 PM 39.9 °F - 37.0 °F 89% 29.98 in 10.0 mi Calm Calm - N/A   Clear
8:53 PM 42.1 °F 40.2 °F 37.9 °F 85% 29.96 in 10.0 mi ESE 3.5 mph - N/A   Clear
9:53 PM 43.0 °F 40.3 °F 37.9 °F 82% 29.94 in 10.0 mi SE 4.6 mph - N/A   Scattered Clouds
10:53 PM 43.0 °F 40.3 °F 37.9 °F 82% 29.94 in 10.0 mi SSE 4.6 mph - N/A   Overcast
11:53 PM 45.0 °F 43.5 °F 37.0 °F 74% 29.91 in 10.0 mi Variable 3.5 mph - N/A   Overcast